• In Deutschland
  • Länderverzeichnis
  • Für 7 Tage
  • Wassertemperatur
  • Satellitenkarten
  • Wetterkarte
  • Widgets
  • user-avatar
    Anmelden

    Stündliche Wetter Newcastle

    Heute, 26 September, Dienstag

    Zeit Temperatur Niederschläge Wind Luftdruck Luftfeuchtigkeit
    00:00 +18°C° 0 mm 4 m/S 759 mmHg 37%
    01:00 +17°C° 0 mm 4 m/S 759 mmHg 39%
    02:00 +15°C° 0 mm 4 m/S 759 mmHg 43%
    03:00 +14°C° 0 mm 4 m/S 760 mmHg 46%
    04:00 +13°C° 0 mm 4 m/S 759 mmHg 53%
    05:00 +13°C° 0 mm 3 m/S 760 mmHg 53%
    06:00 +13°C° 0 mm 3 m/S 760 mmHg 53%
    07:00 +14°C° 0 mm 3 m/S 761 mmHg 53%
    08:00 +18°C° 0 mm 3 m/S 761 mmHg 46%
    09:00 +20°C° 0 mm 3 m/S 761 mmHg 39%
    10:00 +25°C° 0 mm 2 m/S 761 mmHg 30%
    11:00 +26°C° 0 mm 3 m/S 761 mmHg 28%
    12:00 +27°C° 0 mm 3 m/S 760 mmHg 26%
    13:00 +27°C° 0 mm 4 m/S 760 mmHg 25%
    14:00 +26°C° 0 mm 4 m/S 760 mmHg 30%
    15:00 +23°C° 0 mm 4 m/S 760 mmHg 35%
    16:00 +21°C° 0 mm 4 m/S 760 mmHg 44%
    17:00 +19°C° 0 mm 4 m/S 761 mmHg 55%
    18:00 +17°C° 0 mm 4 m/S 761 mmHg 66%
    19:00 +13°C° 0 mm 4 m/S 762 mmHg 77%
    20:00 +13°C° 0 mm 3 m/S 762 mmHg 80%
    21:00 +13°C° 0 mm 3 m/S 763 mmHg 84%
    22:00 +13°C° 0 mm 2 m/S 763 mmHg 87%
    23:00 +13°C° 0 mm 2 m/S 763 mmHg 88%

    Morgen, 27 September, Mittwoch

    Zeit Temperatur Niederschläge Wind Luftdruck Luftfeuchtigkeit
    00:00 +13°C° 0 mm 2 m/S 763 mmHg 89%
    01:00 +13°C° 0 mm 2 m/S 763 mmHg 89%
    02:00 +12°C° 0 mm 2 m/S 762 mmHg 90%
    03:00 +11°C° 0 mm 3 m/S 762 mmHg 91%
    04:00 +11°C° 0 mm 3 m/S 762 mmHg 91%
    05:00 +13°C° 0 mm 3 m/S 762 mmHg 86%
    06:00 +14°C° 0 mm 4 m/S 762 mmHg 81%
    07:00 +15°C° 0 mm 4 m/S 762 mmHg 76%
    08:00 +18°C° 0 mm 4 m/S 762 mmHg 67%
    09:00 +21°C° 0 mm 5 m/S 762 mmHg 59%
    10:00 +23°C° 0 mm 5 m/S 761 mmHg 50%
    11:00 +26°C° 0 mm 5 m/S 760 mmHg 46%
    12:00 +27°C° 0 mm 6 m/S 759 mmHg 42%
    13:00 +29°C° 0 mm 6 m/S 758 mmHg 38%
    14:00 +29°C° 0 mm 7 m/S 757 mmHg 41%
    15:00 +29°C° 0 mm 7 m/S 756 mmHg 43%
    16:00 +29°C° 0 mm 7 m/S 755 mmHg 45%
    17:00 +26°C° 0 mm 7 m/S 756 mmHg 55%
    18:00 +23°C° 0 mm 7 m/S 756 mmHg 64%
    19:00 +21°C° 0 mm 6 m/S 756 mmHg 74%
    20:00 +20°C° 0 mm 6 m/S 755 mmHg 76%
    21:00 +20°C° 0 mm 6 m/S 755 mmHg 77%
    22:00 +19°C° 0 mm 6 m/S 754 mmHg 79%
    23:00 +19°C° 0 mm 5 m/S 754 mmHg 79%

    übermorgen, 28 September, Donnerstag

    Zeit Temperatur Niederschläge Wind Luftdruck Luftfeuchtigkeit
    00:00 +19°C° 0 mm 4 m/S 754 mmHg 78%
    01:00 +19°C° 0 mm 3 m/S 753 mmHg 78%
    02:00 +18°C° 0 mm 3 m/S 754 mmHg 81%
    03:00 +18°C° 0 mm 3 m/S 754 mmHg 85%
    04:00 +17°C° 0 mm 3 m/S 754 mmHg 88%
    05:00 +19°C° 0 mm 3 m/S 754 mmHg 79%
    06:00 +20°C° 0 mm 3 m/S 755 mmHg 69%
    07:00 +21°C° 0 mm 4 m/S 756 mmHg 60%
    08:00 +25°C° 0 mm 4 m/S 756 mmHg 50%
    09:00 +27°C° 0 mm 4 m/S 756 mmHg 41%
    10:00 +29°C° 0 mm 4 m/S 756 mmHg 31%
    11:00 +29°C° 0,1 mm 5 m/S 756 mmHg 34%
    12:00 +28°C° 0,1 mm 5 m/S 756 mmHg 36%
    13:00 +27°C° 0,1 mm 6 m/S 756 mmHg 39%
    14:00 +27°C° 0 mm 6 m/S 756 mmHg 38%
    15:00 +26°C° 0 mm 6 m/S 756 mmHg 36%
    16:00 +26°C° 0 mm 6 m/S 755 mmHg 35%
    17:00 +25°C° 0 mm 5 m/S 756 mmHg 36%
    18:00 +22°C° 0 mm 5 m/S 757 mmHg 36%
    19:00 +21°C° 0 mm 5 m/S 758 mmHg 37%
    20:00 +21°C° 0 mm 5 m/S 758 mmHg 37%
    21:00 +20°C° 0 mm 5 m/S 759 mmHg 37%
    22:00 +20°C° 0 mm 5 m/S 759 mmHg 37%
    23:00 +19°C° 0 mm 5 m/S 759 mmHg 40%

    29 September, Freitag

    Zeit Temperatur Niederschläge Wind Luftdruck Luftfeuchtigkeit
    00:00 +18°C° 0 mm 4 m/S 759 mmHg 42%
    01:00 +17°C° 0 mm 4 m/S 759 mmHg 44%
    02:00 +15°C° 0 mm 4 m/S 759 mmHg 47%
    03:00 +15°C° 0 mm 4 m/S 759 mmHg 50%
    04:00 +14°C° 0 mm 3 m/S 759 mmHg 52%
    05:00 +14°C° 0 mm 4 m/S 760 mmHg 51%
    06:00 +15°C° 0 mm 4 m/S 760 mmHg 51%
    07:00 +17°C° 0 mm 4 m/S 761 mmHg 50%
    08:00 +19°C° 0 mm 4 m/S 761 mmHg 43%
    09:00 +22°C° 0 mm 4 m/S 761 mmHg 37%
    10:00 +26°C° 0 mm 4 m/S 761 mmHg 30%
    11:00 +27°C° 0 mm 3 m/S 760 mmHg 28%
    12:00 +28°C° 0 mm 3 m/S 759 mmHg 26%
    13:00 +29°C° 0 mm 3 m/S 759 mmHg 23%
    14:00 +28°C° 0 mm 3 m/S 758 mmHg 24%
    15:00 +28°C° 0 mm 3 m/S 758 mmHg 24%
    16:00 +28°C° 0 mm 3 m/S 757 mmHg 24%
    17:00 +26°C° 0 mm 3 m/S 758 mmHg 29%
    18:00 +22°C° 0 mm 3 m/S 758 mmHg 33%
    19:00 +20°C° 0 mm 2 m/S 759 mmHg 38%
    20:00 +20°C° 0 mm 2 m/S 759 mmHg 37%
    21:00 +19°C° 0 mm 2 m/S 760 mmHg 37%
    22:00 +19°C° 0 mm 2 m/S 760 mmHg 36%
    23:00 +19°C° 0 mm 3 m/S 760 mmHg 37%

    30 September, Samstag

    Zeit Temperatur Niederschläge Wind Luftdruck Luftfeuchtigkeit
    00:00 +18°C° 0 mm 3 m/S 760 mmHg 38%
    01:00 +17°C° 0 mm 3 m/S 759 mmHg 40%
    02:00 +17°C° 0 mm 3 m/S 759 mmHg 40%
    03:00 +16°C° 0 mm 3 m/S 759 mmHg 41%
    04:00 +16°C° 0 mm 2 m/S 759 mmHg 41%
    05:00 +16°C° 0 mm 3 m/S 760 mmHg 41%
    06:00 +17°C° 0 mm 3 m/S 760 mmHg 41%
    07:00 +17°C° 0 mm 3 m/S 761 mmHg 41%
    08:00 +19°C° 0 mm 4 m/S 761 mmHg 36%
    09:00 +21°C° 0 mm 4 m/S 761 mmHg 32%
    10:00 +23°C° 0 mm 4 m/S 761 mmHg 27%
    11:00 +25°C° 0 mm 4 m/S 761 mmHg 27%
    12:00 +25°C° 0 mm 3 m/S 760 mmHg 26%
    13:00 +25°C° 0 mm 3 m/S 760 mmHg 26%
    14:00 +25°C° 0 mm 3 m/S 759 mmHg 25%
    15:00 +25°C° 0 mm 3 m/S 759 mmHg 25%
    16:00 +26°C° 0 mm 4 m/S 759 mmHg 24%
    17:00 +23°C° 0 mm 4 m/S 760 mmHg 29%
    18:00 +21°C° 0 mm 4 m/S 760 mmHg 34%
    19:00 +19°C° 0 mm 3 m/S 761 mmHg 39%
    20:00 +18°C° 0,1 mm 3 m/S 762 mmHg 45%
    21:00 +16°C° 0,1 mm 3 m/S 762 mmHg 52%
    22:00 +15°C° 0,1 mm 2 m/S 763 mmHg 58%
    23:00 +14°C° 0,1 mm 2 m/S 763 mmHg 62%

    1 Oktober, Sonntag

    Zeit Temperatur Niederschläge Wind Luftdruck Luftfeuchtigkeit
    00:00 +14°C° 0,1 mm 2 m/S 763 mmHg 65%
    01:00 +13°C° 0,1 mm 2 m/S 763 mmHg 68%
    02:00 +11°C° 0 mm 3 m/S 763 mmHg 68%
    03:00 +11°C° 0 mm 3 m/S 763 mmHg 69%
    04:00 +10°C° 0 mm 3 m/S 763 mmHg 69%
    05:00 +11°C° 0 mm 3 m/S 764 mmHg 65%
    06:00 +12°C° 0 mm 3 m/S 764 mmHg 61%
    07:00 +12°C° 0 mm 3 m/S 765 mmHg 57%
    08:00 +16°C° 0 mm 3 m/S 764 mmHg 49%
    09:00 +19°C° 0 mm 3 m/S 764 mmHg 40%
    10:00 +22°C° 0 mm 3 m/S 764 mmHg 32%
    11:00 +24°C° 0 mm 2 m/S 764 mmHg 29%
    12:00 +25°C° 0 mm 2 m/S 763 mmHg 27%
    13:00 +27°C° 0 mm 2 m/S 763 mmHg 24%
    14:00 +26°C° 0 mm 3 m/S 762 mmHg 26%
    15:00 +26°C° 0 mm 3 m/S 762 mmHg 29%
    16:00 +25°C° 0 mm 4 m/S 762 mmHg 31%
    17:00 +21°C° 0 mm 3 m/S 763 mmHg 41%
    18:00 +18°C° 0 mm 3 m/S 764 mmHg 52%
    19:00 +16°C° 0 mm 3 m/S 764 mmHg 62%
    20:00 +14°C° 0 mm 3 m/S 765 mmHg 67%
    21:00 +14°C° 0 mm 2 m/S 765 mmHg 73%
    22:00 +13°C° 0 mm 2 m/S 766 mmHg 78%
    23:00 +13°C° 0 mm 1 m/S 766 mmHg 81%
    Mehr zeigen